GFSNW_sfc_temp_132.txt.gz
Temp
56 56 56 56 56 55 55 53 49 54 54 49 48 42 45 46 47 50 48 49 46 47 45 44 44 45 47 52 51 46 47 46 39 41 44 46 45 44 46 42 36 39 38 42
56 56 56 56 56 55 56 54 52 53 53 45 43 46 45 47 47 47 47 46 48 48 46 43 45 45 49 50 49 47 48 43 37 38 41 43 42 44 45 43 43 37 39 48
56 56 55 56 56 55 56 54 47 54 53 49 49 46 44 44 48 48 49 47 49 47 45 47 44 44 46 49 49 47 50 44 43 43 43 45 39 41 43 44 37 43 42 49
56 55 55 55 55 55 56 51 46 45 46 49 48 48 45 44 44 48 49 47 47 47 43 44 43 45 45 47 47 47 48 40 38 43 43 43 43 44 41 39 43 40 48 47
56 55 55 55 54 54 53 53 51 48 47 45 48 45 45 45 45 46 45 45 47 47 45 47 44 46 46 46 45 46 44 39 38 33 41 40 36 41 42 43 43 44 45 43
56 55 54 54 53 54 54 48 49 54 42 45 47 47 46 46 48 47 49 48 47 45 46 49 49 50 49 49 47 45 43 40 36 35 38 39 37 43 42 42 43 44 39 48
55 55 54 54 54 52 54 48 52 53 46 47 47 45 47 46 46 46 47 49 48 50 52 50 50 48 46 47 45 47 41 40 39 34 39 32 43 46 47 44 46 46 46 49
55 55 54 54 54 51 51 47 50 52 48 47 46 46 47 47 46 46 47 48 50 52 49 46 42 41 40 38 39 42 44 44 38 33 33 42 42 40 41 42 45 48 47 50
55 54 54 54 54 52 51 47 47 51 51 50 50 48 48 48 47 45 45 47 50 49 47 44 38 39 39 36 34 39 40 42 40 34 29 35 45 47 49 49 41 49 48 48
55 54 54 54 54 52 52 48 46 51 50 50 50 49 49 48 46 47 44 45 45 47 45 41 39 38 39 37 35 32 33 35 33 35 32 40 47 48 49 40 41 48 49 48
55 55 54 54 54 52 52 48 48 49 48 49 48 50 48 46 47 47 45 45 43 42 41 41 40 38 40 38 40 36 35 33 33 34 31 29 47 45 42 44 48 47 46 46
55 54 54 54 54 53 51 49 47 47 47 47 45 47 48 48 48 49 44 45 44 47 43 41 41 39 38 40 39 40 37 44 40 41 42 48 48 48 49 49 45 46 43 45
54 54 54 54 54 54 52 48 46 47 44 46 45 44 46 48 47 49 47 45 45 44 46 46 42 39 43 38 38 41 43 45 43 41 45 47 51 51 49 47 46 46 46 44
54 55 54 54 54 53 52 49 47 48 43 39 43 46 44 45 46 46 47 47 45 45 45 43 42 39 44 40 41 39 43 42 42 43 46 46 47 47 46 46 46 45 45 44
54 54 53 53 53 53 50 48 47 47 45 39 41 42 42 43 44 44 44 45 44 43 41 39 39 40 40 41 38 37 44 45 41 42 44 46 46 46 45 44 43 44 42 42
53 52 52 52 52 51 49 43 46 46 46 40 37 40 39 41 42 41 40 42 41 42 41 39 40 39 40 35 35 44 44 45 47 46 46 45 46 45 46 44 44 45 44 44
52 52 52 52 52 49 44 43 46 46 46 40 35 36 38 40 39 38 39 39 39 40 40 37 39 39 39 35 34 43 43 45 45 45 45 43 44 44 46 45 46 44 43 44
52 52 52 51 51 48 45 47 48 47 43 40 34 34 35 38 36 35 37 37 38 37 38 36 36 37 36 31 40 41 43 43 43 44 45 45 44 44 45 44 43 42 43 44
51 51 50 46 44 41 42 47 47 46 43 34 34 32 31 37 34 36 35 37 32 36 33 35 35 34 29 37 39 40 42 42 42 43 44 44 42 44 43 43 42 42 42 43
49 44 41 36 41 47 47 43 39 38 39 37 32 35 32 36 33 33 34 34 32 28 33 34 31 33 40 40 42 44 43 44 43 34 37 39 36 39 41 41 42 41 41 42
41 38 36 40 47 42 39 33 32 34 31 34 34 34 34 37 33 34 35 32 32 27 30 30 30 29 35 38 39 43 44 45 44 43 43 41 40 37 38 40 41 41 41 39
42 41 43 42 38 34 31 28 30 29 29 33 32 33 35 35 37 34 33 31 30 26 32 28 25 33 36 35 36 41 43 43 42 42 40 40 41 41 40 39 37 37 37 37
41 37 33 33 31 25 22 19 24 26 31 32 32 31 34 33 34 33 32 28 27 32 26 25 30 34 37 38 39 40 42 42 40 39 39 38 39 39 38 38 40 41 40 41
34 31 25 26 22 24 26 26 28 32 33 33 33 31 31 33 30 32 27 30 28 23 22 23 32 35 38 39 39 38 39 39 38 34 33 34 34 36 38 38 39 38 37 39
31 29 25 21 28 25 26 27 28 31 33 33 31 30 32 29 28 30 29 25 22 25 24 30 34 36 37 37 37 37 37 36 33 34 33 32 32 34 37 39 40 40 39 39
30 26 23 25 25 23 25 29 29 32 33 33 33 30 27 27 28 25 24 24 22 27 30 35 34 34 35 36 37 38 41 40 38 36 36 35 34 35 37 38 37 38 38 37
27 27 31 28 26 27 28 30 31 34 33 30 30 25 24 25 24 24 29 25 29 32 34 35 35 37 39 40 39 38 37 38 39 38 38 36 36 34 32 32 36 36 37 36

GFSNW_sfc_temp_135.txt.gz
Temp
57 56 56 56 56 56 53 60 53 59 61 54 57 47 50 49 51 54 52 53 52 52 51 50 51 50 52 56 55 50 53 52 42 46 49 51 50 50 51 44 41 44 42 43
56 56 56 56 56 55 62 60 59 60 58 48 48 50 49 52 51 51 51 50 52 53 51 47 50 50 52 54 53 51 53 48 40 41 45 47 44 49 50 51 47 42 41 49
56 56 55 56 56 55 59 60 50 59 61 59 56 51 49 47 52 51 52 51 54 52 50 52 48 48 49 52 53 48 51 49 45 43 43 49 43 46 48 47 40 44 46 51
56 55 55 55 56 55 58 60 52 52 51 54 55 55 52 48 47 52 53 50 51 52 48 49 48 50 48 50 48 51 51 43 43 45 48 48 46 47 47 43 45 43 49 51
56 55 55 55 54 55 60 60 59 57 55 53 54 49 51 50 49 52 49 49 51 52 50 51 48 51 51 50 50 50 50 42 43 36 47 45 41 46 47 48 47 47 48 47
56 55 54 54 54 53 63 58 59 59 47 53 54 53 51 51 52 51 53 53 52 49 52 54 54 55 54 54 51 48 47 44 39 37 43 43 39 46 46 46 49 48 42 52
55 55 54 54 54 55 62 57 59 58 52 54 54 51 52 50 51 50 52 53 52 52 57 56 55 54 51 52 51 53 46 44 42 35 41 31 45 50 52 49 50 51 50 52
55 55 54 54 54 54 58 56 57 59 55 56 51 51 52 51 51 50 51 52 54 58 53 48 45 44 43 45 45 47 49 47 40 34 38 46 48 45 45 45 45 51 50 52
55 55 54 54 54 53 58 53 53 57 57 55 56 53 54 53 52 49 49 52 54 53 52 47 41 41 44 38 37 43 45 46 42 38 32 35 45 49 52 52 42 49 49 49
56 55 54 54 54 53 57 52 52 54 54 56 56 55 54 55 53 53 49 48 48 51 47 43 44 44 45 40 39 34 37 39 35 37 35 42 50 51 52 39 41 49 50 49
56 55 54 54 54 53 56 52 53 52 53 54 53 54 53 52 53 52 49 48 47 46 43 45 46 42 46 42 46 40 40 37 36 40 36 31 51 48 44 47 51 49 48 47
55 55 54 54 54 53 53 55 53 53 51 49 50 51 51 50 50 53 52 49 50 54 47 47 48 43 44 45 43 47 39 47 45 44 45 51 53 51 52 51 48 47 46 47
55 55 55 54 54 53 54 53 51 52 50 50 49 47 49 52 50 52 49 50 51 49 51 50 48 41 48 42 44 46 48 53 44 44 51 50 52 52 50 50 48 47 48 47
54 55 55 54 54 53 53 53 53 52 48 43 46 50 46 49 50 49 51 50 50 51 50 47 46 43 49 46 45 44 48 46 45 45 50 49 50 49 49 48 48 47 48 47
54 54 54 53 53 53 54 53 52 52 48 42 45 46 45 47 47 47 48 49 49 49 44 42 41 45 44 46 41 40 46 46 43 43 50 50 48 48 48 47 46 47 46 46
53 53 53 53 52 51 53 48 49 50 50 42 40 44 42 44 46 45 44 46 47 47 45 44 46 44 42 38 39 48 50 50 51 49 52 49 49 49 49 47 47 48 47 47
53 52 52 52 51 52 47 46 48 49 50 44 37 39 40 42 42 42 42 43 44 44 43 40 42 42 41 38 37 49 48 50 49 50 49 45 47 47 49 48 48 48 48 49
52 52 52 51 50 48 46 49 49 49 47 43 34 35 37 40 38 38 41 40 42 40 40 39 37 39 37 32 43 48 50 48 47 47 49 50 49 48 48 48 47 44 45 47
51 51 50 47 44 42 44 47 48 50 46 35 35 33 33 39 37 39 38 40 34 38 35 36 37 36 31 39 43 45 45 44 44 46 47 47 45 45 45 45 45 44 44 45
50 46 41 36 41 47 47 44 41 41 42 38 33 38 33 39 37 36 36 37 34 29 35 35 31 34 43 45 46 47 46 47 46 35 37 40 38 41 44 43 44 44 44 44
41 36 35 41 47 42 40 34 33 35 32 36 36 37 36 40 35 36 38 34 34 28 32 31 31 31 40 45 45 47 48 47 47 47 46 45 43 40 40 42 43 43 42 39
41 40 42 41 37 34 30 30 33 30 31 36 33 35 39 37 40 37 35 32 32 26 34 29 27 36 39 40 43 46 48 47 46 46 43 43 43 43 43 41 38 38 38 36
41 36 33 32 31 26 24 22 26 29 34 35 34 31 37 35 35 34 32 28 29 35 28 27 33 38 40 40 39 43 46 46 44 42 43 42 42 42 41 40 42 43 42 43
33 31 25 27 24 27 31 31 32 35 36 35 36 32 33 35 31 34 28 33 32 25 23 25 36 39 40 42 42 40 41 42 41 36 35 36 37 38 39 40 42 41 40 41
31 30 24 26 32 30 31 31 32 33 38 35 33 32 35 31 30 31 31 26 23 26 27 34 38 37 40 41 41 42 41 40 37 37 35 33 33 35 38 40 41 41 40 40
31 29 26 29 28 27 28 30 31 34 36 36 35 31 29 29 30 27 26 26 24 29 34 38 40 38 39 41 41 42 43 44 45 42 38 36 35 36 38 40 39 39 38 37
29 28 33 31 29 30 31 34 35 39 35 32 31 26 26 29 26 26 31 28 33 36 37 40 41 40 42 45 44 43 42 43 43 41 41 38 38 36 34 33 36 37 37 36

GFSNW_sfc_temp_138.txt.gz
Temp
56 56 56 57 56 56 52 55 47 56 57 47 49 41 48 48 51 53 52 51 50 48 47 45 45 44 47 53 51 45 45 43 29 37 44 47 43 42 43 31 30 32 30 27
56 56 56 56 56 55 55 53 53 56 55 42 41 48 48 52 50 50 51 49 51 50 47 41 45 46 50 51 49 43 45 39 27 29 35 40 38 43 44 43 38 30 27 33
56 55 55 55 56 56 52 52 45 52 53 53 50 47 47 45 50 50 52 50 51 48 46 47 43 44 47 49 49 49 47 41 36 29 32 39 33 40 42 40 25 30 34 37
56 55 55 55 55 56 52 54 47 48 44 48 49 50 49 46 45 50 51 47 49 48 42 44 43 46 44 47 47 45 44 34 34 37 41 42 40 40 41 37 39 32 38 40
56 55 55 55 54 55 51 50 51 50 49 51 49 45 46 48 47 48 47 45 50 47 44 45 42 46 45 43 43 42 44 33 34 28 40 40 36 40 42 42 42 42 42 41
56 55 54 54 54 53 55 53 54 51 47 49 47 46 48 49 50 48 51 50 47 45 47 50 49 48 48 45 44 42 41 35 30 27 36 36 30 39 40 40 43 43 37 42
55 55 55 54 54 54 54 50 51 50 46 48 49 50 50 49 48 46 50 49 46 46 51 49 46 44 46 46 44 46 40 37 33 25 31 20 39 42 42 43 45 45 45 44
55 55 55 54 54 54 52 51 49 49 46 50 48 49 49 48 46 46 48 49 49 52 46 41 37 36 36 40 41 39 43 39 28 23 25 35 39 40 39 38 39 44 44 46
56 55 54 54 54 54 54 48 48 48 45 46 53 49 49 45 44 43 46 48 50 46 44 39 31 32 36 29 31 38 40 39 32 30 25 25 37 42 47 45 32 43 45 43
57 56 54 54 54 54 52 48 49 46 45 49 49 47 46 50 46 44 43 43 42 45 38 34 33 33 37 31 30 27 29 30 27 28 26 34 42 45 45 30 34 44 42 41
56 56 55 54 54 54 51 48 50 46 45 47 49 51 46 46 46 43 43 42 41 39 35 35 37 33 36 33 37 33 31 28 27 31 27 25 45 42 38 40 43 43 42 41
55 55 55 54 54 54 53 49 50 49 44 44 47 48 47 46 46 45 45 42 44 45 38 38 36 34 36 37 33 39 32 39 35 37 35 44 45 42 44 44 43 41 40 42
55 55 55 54 54 54 52 48 47 47 43 43 42 42 46 50 46 47 42 44 46 44 42 39 38 34 39 33 35 37 40 44 38 39 43 43 45 45 45 45 43 44 44 42
55 55 55 54 54 53 53 48 48 46 43 36 39 47 41 46 47 46 46 45 46 45 42 39 38 35 43 37 38 37 41 41 38 38 42 41 42 44 44 44 45 44 43 42
55 55 54 54 53 53 51 49 48 48 42 36 39 42 41 44 44 43 44 45 43 40 37 34 35 39 38 39 36 34 42 39 36 36 42 43 41 43 44 42 41 42 39 39
54 53 53 53 52 52 48 42 46 47 45 37 33 39 37 41 42 41 40 42 41 39 37 35 38 39 36 31 31 43 46 46 45 41 44 43 43 43 43 42 42 42 39 40
53 53 52 52 52 49 45 42 44 48 46 38 33 32 36 39 38 38 37 39 37 37 37 34 35 36 35 32 30 43 44 44 44 44 43 39 41 39 43 43 42 43 41 41
53 53 52 51 51 48 44 46 48 47 43 40 31 30 32 37 34 33 37 36 35 37 35 37 34 35 35 30 37 41 43 43 42 42 41 43 42 42 42 42 41 38 38 39
52 51 49 46 43 41 42 48 48 47 43 34 33 29 29 36 33 35 34 35 32 34 32 33 34 32 29 34 37 39 40 39 40 41 41 40 39 40 38 37 38 36 37 38
49 44 40 36 41 48 47 43 38 37 38 36 32 35 31 35 32 33 32 32 31 28 32 32 30 30 39 41 42 42 41 42 40 31 31 34 31 35 36 37 37 37 37 37
40 35 34 41 47 41 37 32 31 32 30 33 32 34 31 37 32 32 34 31 29 25 26 26 27 27 34 39 40 42 41 41 39 39 38 37 35 34 35 35 36 36 35 33
40 39 41 40 35 33 30 29 30 29 28 32 31 32 35 33 36 33 31 28 30 23 29 27 25 28 33 35 36 39 39 39 39 39 37 36 37 37 36 34 33 33 32 32
39 34 32 32 31 25 24 21 22 24 30 32 32 29 32 32 33 32 31 27 26 29 26 25 25 32 35 34 34 36 39 39 38 37 36 37 36 37 35 35 37 38 37 38
32 30 24 27 23 27 28 25 26 29 31 32 32 30 31 32 30 31 27 30 28 23 22 20 26 31 33 34 35 35 34 34 34 28 30 32 33 33 34 35 37 36 35 37
30 30 25 25 28 29 27 26 27 29 34 31 30 30 31 29 29 30 29 24 22 24 22 26 27 30 33 33 35 35 34 34 29 31 28 28 29 31 34 35 35 34 35 34
30 29 25 28 26 25 27 27 31 31 33 33 32 28 27 27 28 25 24 24 21 24 27 28 29 31 33 34 36 36 37 37 37 35 32 30 28 30 32 34 34 35 34 31
28 27 31 29 28 29 29 30 31 35 32 30 30 25 25 23 25 24 26 23 25 28 28 29 32 32 34 36 37 37 37 36 36 37 38 35 34 28 26 30 34 34 33 31

GFSNW_sfc_temp_141.txt.gz
Temp
56 56 56 57 56 56 51 45 39 50 50 41 37 34 42 47 46 49 47 46 44 42 42 40 39 38 41 47 46 41 41 39 26 35 41 43 40 39 38 28 30 28 26 27
56 56 56 56 56 55 45 43 43 49 49 32 31 41 45 46 46 46 47 44 47 45 41 38 40 40 46 48 44 40 41 35 23 30 36 39 36 39 40 38 32 28 25 30
56 56 55 55 55 56 45 43 37 44 43 43 40 39 40 40 46 46 48 46 47 43 40 43 39 39 44 45 45 49 46 37 33 28 32 36 32 36 39 37 23 28 29 33
56 55 55 55 55 55 45 42 40 42 37 42 41 43 43 41 40 45 46 43 44 42 37 39 38 40 40 44 47 43 41 32 30 34 37 37 37 38 37 33 34 31 32 35
56 55 55 55 55 55 44 43 43 42 41 44 40 41 41 43 43 43 41 40 45 43 39 40 39 42 39 39 38 38 41 31 31 27 37 35 33 36 37 38 39 38 37 37
56 55 54 54 55 52 44 45 45 45 42 41 39 40 42 45 46 44 46 44 42 40 42 43 43 43 43 42 40 38 37 32 27 26 33 33 29 34 37 35 38 41 34 40
55 55 54 54 54 53 46 43 43 42 40 41 43 45 45 44 44 42 45 45 41 43 46 45 44 42 42 42 39 42 36 34 29 22 28 19 36 39 40 39 41 42 41 42
56 55 55 54 55 55 46 43 43 42 39 43 44 45 44 43 42 42 44 44 44 47 43 38 34 33 34 36 36 36 38 35 26 22 21 31 35 38 38 37 37 40 42 42
56 55 55 54 54 54 46 42 42 41 41 42 47 44 44 39 37 39 41 44 46 44 40 36 29 29 31 28 29 37 38 36 30 26 22 24 36 40 43 42 32 41 42 41
56 56 55 54 54 54 47 43 44 42 40 43 44 42 42 45 40 38 39 39 39 42 34 32 29 29 36 29 27 26 28 28 26 26 24 31 41 43 43 30 35 42 42 41
56 56 55 54 54 54 48 44 45 42 39 41 44 45 42 43 42 38 41 40 39 36 32 31 32 31 34 31 32 29 28 25 25 27 24 23 43 40 37 40 40 42 40 40
55 55 55 54 54 54 52 43 47 45 40 42 44 43 43 42 42 42 41 41 40 40 35 34 33 33 32 32 30 34 31 36 31 33 34 43 43 41 42 43 41 39 39 40
55 55 55 54 54 54 51 43 43 43 39 39 39 38 42 45 43 44 40 40 43 41 40 37 36 33 34 30 32 33 38 42 37 38 41 42 43 42 42 41 41 41 42 41
55 55 55 54 54 53 52 44 44 42 40 33 36 44 38 43 43 43 43 43 43 42 39 36 35 33 39 34 36 36 41 40 37 36 39 38 41 40 41 41 42 41 42 41
55 55 54 54 53 53 49 45 44 45 41 35 35 39 38 41 41 41 42 42 40 37 35 32 33 36 37 35 34 34 41 39 35 37 42 41 40 41 43 41 40 41 41 40
54 53 53 53 53 52 45 40 43 45 43 34 29 36 34 38 39 39 38 38 37 36 35 33 35 38 35 29 29 40 43 43 44 41 41 42 41 42 42 41 40 41 40 39
53 53 53 52 52 48 43 41 44 47 44 37 29 28 35 37 37 36 36 36 34 34 33 32 32 34 34 29 29 41 42 42 42 41 41 38 39 38 41 41 41 43 39 39
54 53 52 52 51 48 44 44 48 46 42 38 25 27 30 37 33 32 35 34 33 35 32 35 33 34 33 29 37 38 41 40 40 40 40 41 41 40 39 40 39 36 37 37
53 52 50 46 44 41 41 48 48 45 41 32 27 24 27 35 33 33 33 35 31 33 32 32 34 31 28 34 35 37 39 38 39 39 39 38 37 37 37 37 35 33 35 35
49 45 41 36 41 47 46 41 36 36 37 35 26 31 29 34 31 31 31 32 30 27 30 32 30 30 38 40 41 39 40 40 38 30 31 33 32 35 34 34 35 35 34 34
41 36 33 40 47 40 36 32 31 31 27 31 31 30 29 36 31 31 34 30 30 24 26 28 23 26 33 37 38 40 40 39 37 37 37 37 36 34 34 34 35 34 33 32
41 40 41 39 35 32 30 28 30 28 24 28 28 30 34 33 37 32 31 29 29 23 28 25 20 28 34 34 36 37 37 37 38 38 37 37 37 36 35 33 31 31 31 30
40 35 32 31 30 24 23 18 23 17 25 30 31 29 31 31 33 31 30 26 25 29 25 22 25 31 34 34 34 35 37 38 37 37 37 36 36 36 34 34 34 34 34 36
33 30 25 28 21 22 22 21 20 25 27 29 28 26 28 31 29 31 26 29 27 22 19 19 25 30 33 34 34 34 33 35 33 29 29 32 33 33 34 33 33 33 33 35
30 30 24 24 25 20 21 19 24 27 30 29 29 27 28 27 27 28 27 23 20 21 20 25 28 32 33 33 34 34 33 34 31 31 28 29 29 29 32 32 31 31 32 32
30 28 24 26 20 18 19 24 26 30 31 31 30 26 25 25 27 25 24 21 17 23 26 29 28 30 32 33 34 35 36 36 35 34 31 29 26 29 31 33 33 32 32 32
28 26 30 26 24 25 26 29 29 34 32 27 26 22 23 24 24 22 24 22 25 29 28 28 30 30 33 34 34 35 35 34 34 33 32 30 32 26 20 27 33 33 33 31

GFSNW_sfc_temp_144.txt.gz
Temp
56 56 56 56 57 56 51 43 37 49 49 39 34 33 40 47 44 47 45 44 42 39 39 38 36 35 39 45 43 38 39 35 25 33 38 40 38 36 35 28 29 26 25 28
56 56 56 56 56 54 44 42 41 48 48 32 30 39 43 44 44 43 44 42 45 44 39 36 37 37 44 46 42 38 39 34 23 30 34 36 35 37 38 35 31 26 24 31
56 55 55 55 55 56 44 41 37 44 42 39 38 38 38 39 45 44 45 43 44 42 38 41 36 37 43 44 43 49 45 35 33 28 32 34 32 34 36 35 23 28 28 30
56 55 55 55 55 55 46 40 38 40 36 41 38 39 41 39 39 43 44 41 42 40 35 36 35 37 38 42 46 41 40 32 28 33 36 35 35 35 35 32 32 30 31 33
56 55 55 55 55 54 45 41 41 40 38 41 39 40 39 41 40 41 39 39 42 40 37 38 37 39 36 37 37 37 38 31 30 26 34 33 32 34 35 35 36 34 35 33
56 55 54 54 55 52 44 42 43 44 41 39 37 38 41 43 45 43 44 42 41 38 41 41 41 41 41 41 39 36 35 31 26 26 30 32 29 33 35 33 35 39 33 41
57 55 54 54 54 51 44 41 42 42 39 39 41 43 43 42 42 41 43 43 40 42 45 44 41 40 40 40 36 39 33 31 27 21 27 19 34 37 39 37 39 39 38 40
57 55 55 54 55 54 43 41 42 41 38 41 42 42 42 41 41 40 42 42 43 44 42 37 34 32 33 33 35 34 37 33 25 22 20 30 35 36 36 35 37 40 40 40
56 55 55 54 54 54 44 41 41 41 40 40 43 43 42 38 35 37 40 43 44 43 38 35 29 29 30 28 28 34 35 34 30 25 22 24 35 38 41 40 32 40 41 39
56 56 55 54 54 54 46 42 42 41 38 40 40 40 40 42 38 37 37 38 39 41 33 32 29 29 34 29 27 26 28 28 26 25 23 30 39 41 41 29 36 38 40 39
56 56 55 54 54 54 47 43 43 43 38 39 42 43 41 41 40 37 39 39 38 36 33 31 31 29 33 30 31 29 28 25 24 27 24 23 41 40 37 40 37 40 40 40
56 55 55 54 54 54 50 43 45 44 41 41 42 41 41 41 41 41 39 40 38 39 33 32 32 32 31 31 30 31 29 34 30 32 33 41 42 40 41 42 41 40 40 40
55 55 55 55 54 54 50 42 42 42 38 38 38 37 40 44 41 42 39 38 42 39 40 36 35 33 33 29 30 31 37 38 34 35 40 40 43 40 41 41 41 41 41 41
55 56 55 54 54 54 51 44 43 42 39 34 36 42 37 40 41 42 42 42 41 40 38 35 34 33 38 33 35 34 40 38 35 34 38 39 40 41 41 40 41 40 40 40
55 55 55 54 54 53 47 44 44 44 41 35 35 38 38 39 40 40 40 41 39 36 34 29 32 33 34 33 32 32 42 38 34 38 41 41 42 42 42 40 39 40 39 39
54 54 54 53 53 51 47 40 42 44 43 34 30 36 34 38 39 39 38 38 36 35 34 31 33 36 34 27 26 40 43 42 42 44 39 41 39 40 41 40 40 40 40 39
54 54 53 53 52 48 44 40 43 47 44 36 29 27 34 37 37 37 36 35 33 33 33 30 31 33 34 28 26 41 43 42 42 39 39 37 38 38 40 40 40 43 40 39
54 53 53 52 51 48 44 45 48 45 41 37 24 24 28 35 33 32 35 32 32 32 31 32 31 33 31 28 36 39 41 40 41 41 41 40 40 39 39 39 39 37 37 37
53 53 51 47 44 41 42 48 48 45 42 30 24 22 23 33 31 33 33 33 29 33 32 31 34 31 28 33 36 37 38 38 39 38 37 38 37 37 37 37 36 35 35 35
51 47 41 36 41 47 47 42 38 36 37 35 26 27 27 30 28 29 29 30 29 22 29 31 30 29 36 39 39 39 40 41 38 30 31 33 33 35 36 36 36 36 35 35
42 37 34 41 46 41 37 32 32 32 29 33 29 29 29 33 26 27 31 27 27 22 24 27 25 25 33 37 36 39 39 39 38 38 37 37 37 35 35 36 36 35 33 31
42 40 41 39 35 32 30 28 29 27 25 27 26 30 31 30 34 31 32 28 27 18 26 26 21 26 33 33 35 37 37 37 38 38 37 37 37 37 36 35 32 31 31 30
41 36 32 31 30 25 24 18 22 20 24 26 28 29 30 29 32 30 29 25 22 26 26 21 22 30 33 33 34 35 37 38 37 37 37 38 37 37 35 34 35 34 33 34
34 31 25 28 22 23 23 22 22 25 26 29 26 27 27 29 27 29 22 27 26 22 21 17 21 28 31 32 34 35 34 35 35 31 31 34 35 34 34 33 33 33 33 32
31 31 27 24 23 23 20 19 26 27 31 30 27 27 26 24 24 29 28 21 21 23 18 22 24 30 31 31 32 33 33 34 30 32 28 28 27 29 31 32 31 30 30 29
30 28 22 26 20 21 17 23 29 29 31 29 29 25 22 21 27 22 22 21 16 20 22 26 27 30 30 31 33 34 35 35 35 33 31 29 28 30 30 30 28 29 29 30
27 20 27 24 22 24 26 30 28 32 32 25 25 19 21 25 17 18 22 20 23 27 26 27 30 29 30 32 32 33 33 33 32 31 31 30 30 20 18 24 31 29 31 28

GFSNW_sfc_temp_147.txt.gz
Temp
56 56 56 56 56 56 50 42 37 48 48 38 32 32 38 46 44 46 44 42 40 37 37 35 34 34 36 43 41 36 37 34 25 31 36 38 35 34 34 28 28 25 24 28
56 56 56 56 56 54 43 40 40 48 47 31 30 37 41 42 42 42 43 42 43 41 37 34 35 36 41 44 41 36 38 33 23 30 33 35 32 35 35 33 30 25 25 31
56 55 55 55 56 56 44 41 36 43 40 37 37 35 37 38 43 42 44 41 43 40 37 39 34 35 41 42 41 48 45 33 32 28 31 33 31 33 35 34 23 27 27 31
56 55 55 55 55 55 45 39 37 38 35 39 37 38 38 37 37 42 43 39 41 39 33 35 33 36 37 41 45 40 39 32 28 32 35 35 35 35 33 32 32 30 31 31
57 55 55 55 55 54 43 41 40 38 37 39 37 38 38 39 39 39 37 37 40 39 35 37 36 37 34 35 36 34 36 31 30 26 33 32 32 33 33 34 36 34 35 34
57 55 54 54 55 52 42 40 41 43 40 37 36 37 39 41 43 41 42 41 39 37 39 40 38 39 39 38 37 35 34 30 26 25 29 31 29 32 35 33 33 37 31 41
58 55 55 54 54 51 43 40 40 40 38 38 40 41 42 40 40 40 41 41 39 40 44 43 40 40 39 39 35 37 31 30 27 20 27 18 34 35 37 35 38 37 37 38
58 56 55 54 55 53 43 40 41 40 36 39 40 40 40 40 39 38 40 40 41 42 41 36 34 32 32 32 33 33 35 31 25 21 20 30 34 33 35 34 36 39 40 39
57 56 55 55 54 54 44 41 40 41 39 39 41 41 39 37 34 37 38 41 43 41 37 34 29 28 29 28 27 33 34 33 30 24 21 23 33 36 39 38 32 37 39 38
56 56 55 55 54 54 45 42 42 42 39 40 40 40 40 40 37 36 36 37 38 40 33 32 29 29 32 29 28 26 28 28 26 25 23 30 38 39 40 28 35 37 39 38
56 56 56 55 54 54 47 43 42 41 38 39 41 42 40 40 39 37 38 38 37 34 32 31 30 28 31 28 30 28 28 25 25 26 24 23 40 38 36 40 36 38 38 39
55 55 56 55 54 54 49 42 44 43 39 40 40 40 41 41 41 41 37 39 37 38 33 31 30 31 29 29 29 29 29 34 29 31 32 40 40 40 41 40 40 39 38 38
55 55 56 55 55 55 50 42 41 41 38 38 38 37 39 43 41 42 40 38 41 38 38 35 33 32 33 29 29 30 34 36 33 34 39 39 42 41 41 41 41 41 41 40
55 56 56 55 55 54 50 43 42 41 38 33 36 41 36 39 41 40 41 41 40 39 37 35 33 32 37 32 34 33 39 36 33 33 38 37 40 40 40 40 40 39 39 40
55 55 55 55 54 54 48 43 43 43 42 34 35 37 36 38 39 38 39 40 37 35 33 28 31 32 33 31 31 31 40 38 33 34 41 40 40 41 41 40 39 40 39 39
54 54 54 54 53 51 47 40 41 43 43 33 30 35 33 37 38 39 37 37 35 34 33 31 31 34 33 28 26 37 42 43 43 41 38 40 40 40 39 40 40 40 40 40
53 53 54 53 52 49 44 40 42 46 42 35 28 27 33 35 36 37 37 35 33 33 32 30 30 31 33 28 26 39 40 40 40 40 37 37 38 38 40 41 40 43 40 40
53 53 53 53 52 48 44 45 48 44 39 35 24 24 28 33 31 31 35 33 32 31 30 30 29 30 29 27 33 36 37 38 39 40 39 40 40 39 38 39 38 38 37 37
52 52 52 47 44 41 43 49 48 45 42 32 25 23 23 32 30 31 32 32 29 31 29 29 33 29 28 33 34 34 35 36 37 39 38 38 38 37 37 38 38 37 37 37
52 47 42 37 41 47 47 42 38 37 38 35 31 29 27 31 28 29 28 28 26 26 29 30 30 30 35 36 35 35 36 38 36 30 33 34 33 35 36 37 38 38 37 36
43 38 35 42 46 41 38 33 32 33 30 33 32 29 28 32 28 29 30 24 26 16 23 25 26 23 30 33 33 35 36 36 36 38 38 38 36 35 35 36 36 36 36 34
43 40 42 40 35 32 31 30 30 29 28 30 30 31 32 30 34 30 32 26 26 21 25 26 22 25 31 31 32 34 34 36 36 36 36 36 36 37 37 37 34 34 34 32
41 36 32 32 31 26 26 20 22 24 24 27 30 29 32 31 34 31 27 24 22 26 25 24 21 27 30 30 31 32 34 35 35 35 36 36 36 35 34 35 36 35 33 33
35 32 26 29 25 26 24 23 23 26 26 28 27 27 26 28 26 26 19 27 27 18 20 16 19 26 29 30 31 32 30 32 32 27 27 30 34 33 33 33 33 32 31 32
32 31 28 27 25 23 18 20 26 27 33 30 26 24 26 26 25 28 25 20 22 24 18 20 21 28 29 30 32 32 31 31 27 29 26 26 26 28 29 31 30 29 29 28
30 28 25 27 21 24 25 26 28 30 33 29 28 25 23 24 23 20 23 16 14 19 19 23 26 28 29 30 32 33 33 32 33 32 29 26 26 29 29 28 28 29 28 29
28 21 25 23 22 23 26 31 31 33 31 23 24 19 22 23 17 18 19 17 21 23 23 24 28 29 30 31 32 33 33 32 31 29 29 28 26 18 19 24 30 28 29 27

GFSNW_sfc_temp_150.txt.gz
Temp
56 56 56 56 56 55 49 41 38 48 47 38 31 32 37 45 41 44 42 41 40 36 35 34 32 32 35 41 39 35 35 33 25 30 34 36 34 32 33 29 27 24 24 28
56 56 56 56 56 54 42 39 39 47 47 31 29 37 39 41 41 41 41 39 41 40 36 34 35 35 41 42 40 35 37 33 23 30 32 34 31 33 33 31 28 24 24 31
56 55 55 55 55 55 43 40 35 42 39 36 36 34 35 36 42 41 42 40 41 38 35 36 34 34 40 41 40 47 43 32 32 28 31 33 30 32 33 32 22 27 27 31
57 55 55 55 55 55 45 38 36 37 34 38 35 36 36 35 36 41 41 39 40 37 32 33 32 34 35 39 43 37 38 32 26 30 32 33 33 34 32 31 33 32 31 32
57 56 55 55 55 54 42 40 39 36 35 37 35 38 35 37 37 38 36 36 38 37 35 35 32 35 32 33 36 33 35 30 29 26 32 31 31 33 32 33 34 31 34 34
57 56 55 54 54 51 41 38 39 42 38 35 34 35 37 39 40 40 40 39 37 35 37 38 36 37 38 37 36 33 32 30 26 25 27 30 28 29 32 31 31 35 31 41
57 56 55 55 54 50 43 39 40 40 37 37 39 39 40 39 39 38 39 40 37 39 42 41 38 38 36 37 34 35 31 29 27 20 27 19 34 33 35 34 35 36 37 37
56 57 55 55 55 53 43 39 41 40 37 38 39 39 39 38 38 37 39 39 40 41 39 36 34 31 31 31 32 33 34 31 24 21 19 30 33 33 33 33 36 37 37 38
56 56 55 55 54 54 43 40 40 40 39 39 41 40 38 37 34 35 37 39 41 40 36 34 29 29 29 28 26 32 33 32 29 24 20 23 32 35 38 36 32 37 37 37
56 55 56 55 54 53 45 41 41 40 38 39 39 39 39 40 36 35 34 36 37 39 33 32 29 28 30 28 27 26 28 27 25 25 22 29 37 38 38 27 35 37 37 37
56 55 56 55 54 54 46 42 41 40 37 38 40 41 40 39 38 37 37 38 36 34 33 32 31 29 31 27 29 27 27 24 24 25 23 22 39 36 36 41 37 38 38 38
55 55 55 55 55 54 49 41 43 42 39 39 39 39 39 39 39 39 36 38 36 38 33 31 30 31 28 30 30 29 29 34 29 31 32 39 38 40 39 39 39 39 37 39
55 55 55 55 55 54 50 41 40 40 37 37 37 36 37 41 39 40 38 36 39 37 37 33 32 32 32 28 28 29 33 35 33 34 40 38 41 40 40 40 40 41 40 40
55 55 55 55 55 54 50 43 41 40 37 33 36 40 35 38 40 39 40 40 39 38 36 34 32 32 35 31 32 32 37 35 33 32 38 37 40 38 40 40 39 40 38 39
54 55 55 55 54 54 49 46 42 43 41 34 34 36 35 37 38 38 38 39 37 35 33 28 31 32 32 29 29 29 37 37 32 33 40 39 39 40 40 39 40 39 38 37
51 53 54 54 53 51 48 42 40 42 42 32 30 34 32 36 36 37 36 36 35 34 33 31 31 32 33 27 25 35 41 43 40 37 35 38 40 39 38 38 39 39 39 39
51 52 53 53 52 47 45 40 43 45 42 37 29 27 32 33 33 34 33 33 31 33 32 30 29 31 33 28 25 38 40 36 37 37 35 36 36 37 38 38 39 42 39 39
51 50 52 52 52 49 45 45 48 44 38 34 23 24 28 32 30 29 32 30 30 31 30 29 29 30 28 28 32 33 35 36 36 35 36 37 37 36 36 37 38 37 37 38
50 51 51 49 45 41 43 48 48 45 40 30 24 23 23 31 29 29 30 31 29 30 29 28 32 30 28 32 32 32 33 33 35 36 35 36 36 36 35 36 36 36 37 37
50 47 43 39 42 48 47 42 38 38 38 35 31 28 24 29 27 27 27 28 27 26 30 30 30 31 34 34 34 33 34 34 33 26 29 31 31 32 33 35 37 37 37 36
43 39 35 42 47 42 39 33 32 33 31 33 34 33 27 31 27 27 30 26 26 16 23 26 26 25 28 31 31 33 32 33 33 33 34 35 34 32 33 34 35 36 35 35
43 41 42 41 36 33 31 30 31 31 31 31 30 29 33 31 33 31 31 26 27 19 25 26 22 25 30 29 30 31 31 32 32 33 33 31 33 34 34 34 32 32 32 30
41 36 32 31 31 27 27 25 26 26 25 30 30 29 32 32 34 31 28 24 22 25 25 23 21 26 29 28 29 30 31 33 33 33 33 34 33 34 32 33 33 33 32 32
34 32 27 28 25 28 27 24 24 27 26 30 30 27 28 31 30 29 19 26 27 21 16 16 19 25 28 28 30 31 29 31 31 27 25 28 32 32 32 31 31 30 29 31
32 32 27 26 28 22 18 19 23 27 33 31 27 27 29 27 27 28 23 22 21 18 16 20 20 27 28 29 30 30 29 30 26 28 24 21 21 26 28 30 29 28 28 27
32 31 24 26 26 23 23 26 28 28 34 30 31 25 21 23 23 23 20 16 13 19 21 23 26 27 27 29 31 31 31 31 31 31 28 25 24 28 28 27 26 27 27 26
27 20 26 24 19 23 24 28 30 36 34 24 23 19 23 23 20 18 20 17 20 23 22 23 28 29 30 30 31 32 32 30 30 28 28 25 26 16 17 22 29 26 27 26